Regional Weather Roundup
Issued by NWS

Home | Current Version | Previous Version | Graphics & Text | Print | Product List | Glossary Off
Versions: 1 2 3 4 5 6 7 8 9 10 11 12 13 14 15 16 17 18 19 20 21 22 23 24 25 26 27 28 29 30 31 32 33 34 35 36 37 38 39 40 41 42 43 44 45 46 47 48 49 50

000
ASUS43 KFSD 260402
RWRSD

WEATHER ROUNDUP FOR SOUTH DAKOTA
NATIONAL WEATHER SERVICE SIOUX FALLS SD
1100 PM CDT SAT OCT 25 2014

NOTE: "FAIR" INDICATES FEW OR NO CLOUDS BELOW 12,000 FEET WITH NO
SIGNIFICANT WEATHER AND/OR OBSTRUCTIONS TO VISIBILITY.


SDZ001>005-009-010-012>017-260500-
NORTHWEST AND NORTH CENTRAL SOUTH DAKOTA

CITY           SKY/WX    TMP DP  RH WIND       PRES   REMARKS
BUFFALO          N/A     53  31  42 SE16G24   29.76F
FAITH            N/A     51  29  42 SE22G30   29.88F
MOBRIDGE       CLEAR     50  34  54 SE13      29.93F
$$

SDZ012>016-024>037-041>051-057-063-072>074-260500-
SOUTHWEST AND SOUTH CENTRAL SOUTH DAKOTA

CITY           SKY/WX    TMP DP  RH WIND       PRES   REMARKS
RAPID CTY ARPT CLEAR     45  36  70 SE8       29.87F
PIERRE         CLEAR     47  34  60 E9        29.94F
CUSTER         CLEAR     41  32  70 NW6       29.97F
ELLSWORTH AFB  CLEAR     50  37  60 SE12      29.86F
PHILIP         CLEAR     48  32  53 E10       29.91F
PINE RIDGE     CLEAR     60  40  47 S14G23    29.89F
WINNER         FAIR      52  33  48 SE10      29.97F
$$

SDZ004>011-016>023-039-040-260500-
NORTHEAST SOUTH DAKOTA

CITY           SKY/WX    TMP DP  RH WIND       PRES   REMARKS
ABERDEEN       CLEAR     38  29  70 SE7       30.02F
WATERTOWN      CLEAR     45  30  55 SE3       30.03F
SISSETON         N/A     37  28  70 SW3       30.03F
$$

SDZ017-020-022-023-036>040-048>070-260500-
SOUTHEAST SOUTH DAKOTA

CITY           SKY/WX    TMP DP  RH WIND       PRES   REMARKS
SIOUX FALLS    CLEAR     45  35  68 NE5       30.04F
HURON          CLEAR     47  32  56 SE9       30.02F
CHAMBERLAIN    CLEAR     49  33  54 SE12      29.98F
MITCHELL       CLEAR     47  35  63 SE7       30.02F
YANKTON        CLEAR     52  34  50 E6        30.03F
$$

ABBREVIATIONS USED IN REMARKS
   TC - TEMPERATURE IN CELSIUS
  WCI - WIND CHILL INDEX
   HX - HEAT INDEX
  VSB - VISIBILITY




USA.gov is the U.S. government's official web portal to all federal, state and local government web resources and services.